Location: ?????
(38.3715°N, 23.0573°E)
Time: 20:05:12
(UTC+00:00)

Lacrosse 5 rocket - Pass Details

Date: 03 August 2024
Orbit: 433 x 567 km, 57.0° (Epoch: 14 September)

Event Time Altitude Azimuth Distance (km) Brightness Sun altitude
Rises 18:00:22 0° 273° (W) 2,452 6.1 -5.3°
Reaches altitude 10° 18:03:29 10° 303° (WNW) 1,612 5.5 -5.8°
Maximum altitude 18:05:09 13° 331° (NNW) 1,470 4.5 -6.1°
Drops below altitude 10° 18:06:52 10° 359° (N) 1,651 4.2 -6.4°
Enters shadow 18:18:26 -20° 52° (NE) 5,584 6.2 -8.4°
